Date String (YYYY-MM-DD hh:mm:ss) UTC,Instrument flags,absolute air pressure of the measurement (hPa),sample flow rate (lpm),inlet stack bypass flow (lpm),air temperature of the measurement (°C),ambient temperature measured by the external sensor (°C),aerosol sample conditioner tube jacket temperature (°C),OPC LED temperature (°C),internal box temperature (°C),relative humidity of the measurement (%),span deviation,mass concentration of particles derived from Lorenz-Mie calculation of OPC scattering (μg/m³),mass concentration of particles derived from Lorenz-Mie calculation of OPC scattering (μg/m³),mass concentration of particles derived from Lorenz-Mie calculation of OPC scattering (μg/m³)
DateTimeUTC,F1_M11,P_M11,Q1_M11,Q2_M11,T1_M11,T2_M11,T3_M11,T4_M11,T5_M11,U1_M11,ZSPAN_M11,X0_M11,X2_M11,X1_M11
2024-01-07 05:00:00,SystemResetWarning,0819.9,5.00,000.00,018.6,017.1,000.0,027.2,020.0,7.5,0000.0,0001.81,0001.13,0000.81
2024-01-07 05:01:00,SystemResetWarning,0819.9,5.00,000.00,018.6,017.1,000.0,027.2,020.0,7.6,0000.0,0001.78,0001.12,0000.82
2024-01-07 05:02:00,SystemResetWarning,0819.7,5.00,000.00,018.6,017.2,000.0,027.2,020.1,7.6,0000.0,0001.86,0001.11,0000.82
2024-01-07 05:03:00,SystemResetWarning,0819.9,5.01,000.00,018.7,017.8,000.0,027.2,020.4,7.6,0000.0,0001.77,0001.11,0000.82
2024-01-07 05:04:00,SystemResetWarning,0819.8,4.99,000.00,018.9,018.7,000.0,027.1,020.7,7.5,0000.0,0001.81,0001.13,0000.83
2024-01-07 05:05:00,SystemResetWarning,0820.1,4.98,000.00,018.9,018.7,000.0,027.1,020.5,7.5,0000.0,0001.82,0001.15,0000.83
2024-01-07 05:06:00,SystemResetWarning,0819.6,5.00,000.00,018.9,018.6,000.0,027.1,020.3,7.5,0000.0,0001.75,0001.13,0000.82
2024-01-07 05:07:00,SystemResetWarning,0819.7,5.01,000.00,018.9,018.4,000.0,027.1,020.1,7.5,0000.0,0001.73,0001.10,0000.83
2024-01-07 05:08:00,SystemResetWarning,0819.9,5.00,000.00,018.8,018.2,000.0,027.1,020.0,7.5,0000.0,0001.74,0001.11,0000.84
2024-01-07 05:09:00,SystemResetWarning,0819.9,5.00,000.00,018.8,018.1,000.0,027.1,020.0,7.5,0000.0,0001.70,0001.10,0000.85
2024-01-07 05:10:00,SystemResetWarning,0819.5,5.00,000.00,018.8,017.9,000.0,027.1,020.0,7.6,0000.0,0001.60,0001.07,0000.86
2024-01-07 05:11:00,SystemResetWarning,0819.7,5.00,000.00,018.7,017.8,000.0,027.2,020.0,7.6,0000.0,0001.60,0001.07,0000.86
2024-01-07 05:12:00,SystemResetWarning,0819.8,4.99,000.00,018.7,017.7,000.0,027.2,020.0,7.6,0000.0,0001.64,0001.08,0000.87
2024-01-07 05:13:00,SystemResetWarning,0819.9,4.99,000.00,018.7,017.6,000.0,027.2,020.0,7.6,0000.0,0001.57,0001.09,0000.87
2024-01-07 05:14:00,SystemResetWarning,0819.6,5.01,000.00,018.7,017.5,000.0,027.2,020.0,7.6,0000.0,0001.56,0001.11,0000.88
2024-01-07 05:15:00,SystemResetWarning,0819.5,5.01,000.00,018.7,017.5,000.0,027.2,020.0,7.6,0000.0,0001.54,0001.10,0000.88
2024-01-07 05:16:00,SystemResetWarning,0819.5,5.00,000.00,018.7,017.4,000.0,027.2,020.0,7.6,0000.0,0001.48,0001.08,0000.88
2024-01-07 05:17:00,SystemResetWarning,0819.5,4.99,000.00,018.7,017.4,000.0,027.2,020.0,7.6,0000.0,0001.48,0001.08,0000.89
2024-01-07 05:18:00,SystemResetWarning,0819.5,4.99,000.00,018.7,017.4,000.0,027.2,020.0,7.6,0000.0,0001.43,0001.07,0000.90
2024-01-07 05:19:00,SystemResetWarning,0819.5,5.00,000.00,018.7,017.3,000.0,027.2,020.0,7.6,0000.0,0001.47,0001.08,0000.90
2024-01-07 05:20:00,SystemResetWarning,0819.5,5.00,000.00,018.6,017.3,000.0,027.2,020.0,7.6,0000.0,0001.56,0001.11,0000.91
2024-01-07 05:21:00,SystemResetWarning,0819.5,5.00,000.00,018.6,017.3,000.0,027.2,020.0,7.6,0000.0,0001.56,0001.11,0000.91
2024-01-07 05:22:00,SystemResetWarning,0819.5,5.00,000.00,018.6,017.3,000.0,027.2,020.0,7.6,0000.0,0001.51,0001.10,0000.91
2024-01-07 05:23:00,SystemResetWarning,0819.5,5.00,000.00,018.6,017.2,000.0,027.2,020.0,7.6,0000.0,0001.51,0001.10,0000.91
2024-01-07 05:24:00,SystemResetWarning,0819.4,5.00,000.00,018.6,017.2,000.0,027.2,020.0,7.6,0000.0,0001.55,0001.11,0000.91
2024-01-07 05:25:00,SystemResetWarning,0819.5,5.00,000.00,018.6,017.2,000.0,027.2,020.0,7.6,0000.0,0001.64,0001.11,0000.91
2024-01-07 05:26:00,SystemResetWarning,0819.5,4.99,000.00,018.6,017.2,000.0,027.2,020.0,7.6,0000.0,0001.73,0001.15,0000.90
2024-01-07 05:27:00,SystemResetWarning,0819.5,5.00,000.00,018.6,017.2,000.0,027.2,020.0,7.6,0000.0,0001.81,0001.18,0000.91
2024-01-07 05:28:00,SystemResetWarning,0819.4,5.00,000.00,018.6,017.2,000.0,027.2,020.0,7.6,0000.0,0001.80,0001.17,0000.91
2024-01-07 05:29:00,SystemResetWarning,0819.5,5.00,000.00,018.6,017.2,000.0,027.2,020.0,7.6,0000.0,0001.84,0001.19,0000.90
2024-01-07 05:30:00,SystemResetWarning,0819.4,5.00,000.00,018.6,017.1,000.0,027.2,020.0,7.6,0000.0,0001.82,0001.19,0000.90
2024-01-07 05:31:00,SystemResetWarning,0819.4,5.00,000.00,018.6,017.1,000.0,027.2,020.0,7.6,0000.0,0001.81,0001.19,0000.89
2024-01-07 05:32:00,SystemResetWarning,0819.5,5.00,000.00,018.6,017.1,000.0,027.2,020.0,7.6,0000.0,0001.83,0001.19,0000.88
2024-01-07 05:33:00,SystemResetWarning,0819.4,5.00,000.00,018.6,017.1,000.0,027.2,020.0,7.6,0000.0,0001.83,0001.19,0000.89
2024-01-07 05:34:00,SystemResetWarning,0819.5,5.00,000.00,018.6,017.1,000.0,027.2,020.0,7.6,0000.0,0001.89,0001.22,0000.89
2024-01-07 05:35:00,SystemResetWarning,0819.5,5.00,000.00,018.6,017.1,000.0,027.2,020.0,7.6,0000.0,0001.88,0001.21,0000.89
2024-01-07 05:36:00,SystemResetWarning,0819.5,5.00,000.00,018.6,017.2,000.0,027.2,020.1,7.6,0000.0,0001.96,0001.27,0000.89
2024-01-07 05:37:00,SystemResetWarning,0819.5,5.01,000.00,018.7,017.7,000.0,027.1,020.4,7.6,0000.0,0001.88,0001.23,0000.90
2024-01-07 05:38:00,SystemResetWarning,0819.5,5.00,000.00,018.8,018.6,000.0,027.1,020.7,7.6,0000.0,0001.83,0001.20,0000.90
2024-01-07 05:39:00,SystemResetWarning,0819.4,4.99,000.00,018.9,018.7,000.0,027.1,020.5,7.5,0000.0,0001.90,0001.23,0000.89
2024-01-07 05:40:00,SystemResetWarning,0819.5,4.99,000.00,018.9,018.7,000.0,027.1,020.3,7.5,0000.0,0001.90,0001.23,0000.89
2024-01-07 05:41:00,SystemResetWarning,0819.5,4.99,000.00,018.9,018.5,000.0,027.1,020.1,7.5,0000.0,0002.03,0001.26,0000.89
2024-01-07 05:42:00,SystemResetWarning,0819.5,5.01,000.00,018.8,018.4,000.0,027.1,020.0,7.5,0000.0,0002.06,0001.26,0000.88
2024-01-07 05:43:00,SystemResetWarning,0819.5,5.01,000.00,018.8,018.2,000.0,027.1,020.0,7.4,0000.0,0002.05,0001.26,0000.88
2024-01-07 05:44:00,SystemResetWarning,0819.5,5.00,000.00,018.8,018.2,000.0,027.1,020.0,7.4,0000.0,0002.02,0001.24,0000.87
2024-01-07 05:45:00,SystemResetWarning,0819.6,4.99,000.00,018.8,018.1,000.0,027.1,020.0,7.4,0000.0,0001.98,0001.22,0000.87
2024-01-07 05:46:00,SystemResetWarning,0819.7,4.99,000.00,018.7,018.0,000.0,027.2,020.0,7.4,0000.0,0001.96,0001.20,0000.86
2024-01-07 05:47:00,SystemResetWarning,0819.7,5.00,000.00,018.7,017.9,000.0,027.2,020.0,7.4,0000.0,0001.84,0001.15,0000.85
2024-01-07 05:48:00,SystemResetWarning,0819.7,5.01,000.00,018.7,017.8,000.0,027.2,020.0,7.4,0000.0,0001.87,0001.16,0000.85
2024-01-07 05:49:00,SystemResetWarning,0819.5,5.01,000.00,018.7,017.7,000.0,027.2,020.0,7.4,0000.0,0001.91,0001.18,0000.85
2024-01-07 05:50:00,SystemResetWarning,0819.6,5.00,000.00,018.7,017.6,000.0,027.2,020.0,7.3,0000.0,0001.80,0001.14,0000.84
2024-01-07 05:51:00,SystemResetWarning,0819.5,4.98,000.00,018.7,017.6,000.0,027.2,020.0,7.3,0000.0,0001.78,0001.11,0000.83
2024-01-07 05:52:00,SystemResetWarning,0819.5,5.00,000.00,018.7,017.5,000.0,027.2,020.0,7.3,0000.0,0002.55,0001.09,0000.83
2024-01-07 05:53:00,SystemResetWarning,0819.5,5.01,000.00,018.7,017.5,000.0,027.2,020.0,7.3,0000.0,0003.22,0001.07,0000.83
2024-01-07 05:54:00,SystemResetWarning,0819.5,5.01,000.00,018.7,017.5,000.0,027.2,020.0,7.2,0000.0,0003.16,0001.05,0000.83
2024-01-07 05:55:00,SystemResetWarning,0819.5,5.00,000.00,018.7,017.4,000.0,027.2,020.0,7.2,0000.0,0003.34,0001.07,0000.83
2024-01-07 05:56:00,SystemResetWarning,0819.4,4.99,000.00,018.6,017.4,000.0,027.2,020.0,7.2,0000.0,0003.48,0001.10,0000.83
2024-01-07 05:57:00,SystemResetWarning,0819.5,4.99,000.00,018.7,017.4,000.0,027.2,020.0,7.2,0000.0,0003.50,0001.12,0000.84
2024-01-07 05:58:00,SystemResetWarning,0819.5,5.00,000.00,018.7,017.5,000.0,027.2,020.0,7.2,0000.0,0003.52,0001.14,0000.85
2024-01-07 05:59:00,SystemResetWarning,0819.5,5.00,000.00,018.7,017.5,000.0,027.2,020.0,7.2,0000.0,0003.53,0001.13,0000.85
